Location: Holcomb Observatory
(44.4922°N, 73.1654°W)
Time: 08:21:16
(UTC-05:00)

Daily predictions for brighter satellites

Satellite Brightness Start Highest point End
(mag) Time Altitude Azimuth Time Altitude Azimuth Time Altitude Azimuth
USA 215 3.9 17:11:51 10° E 17:17:50 40° NNE 17:23:49 10° NW
Cosmos 2297 3.8 17:15:26 10° NNW 17:21:05 58° ENE 17:26:43 10° SE
Cosmos 1634 Rocket 4.1 17:15:58 10° N 17:22:11 89° W 17:28:21 10° S
SJ-12 4.3 17:18:06 10° S 17:22:13 73° WSW 17:26:21 10° NNW
Aureole 2 Rocket 2.8 17:18:40 10° S 17:22:28 65° ESE 17:26:35 10° NNE
USA 116 3.0 17:20:57 10° NNE 17:24:04 78° E 17:27:10 10° S
IDEFIX/ARIANE 42P 2.9 17:19:32 10° S 17:24:44 75° WSW 17:30:01 10° NNW
ALOS 4.0 17:23:55 10° E 17:25:42 12° ENE 17:27:29 10° NE
Cosmos 2151 2.9 17:23:00 10° S 17:27:11 73° E 17:31:24 10° NNE
SL-14 R/B 3.2 17:24:19 10° S 17:28:15 76° E 17:32:17 10° NNE
Cosmos 1484 Rocket 3.0 17:25:58 10° SSE 17:29:48 50° ENE 17:33:42 10° N
Meteor 1-28 Rocket 4.5 17:26:59 10° NE 17:29:55 21° E 17:32:50 10° SE
Abrixas 2.5 17:29:17 10° WSW 17:32:12 67° NNW 17:34:57 11° ENE
Cosmos 1707 Rocket 4.1 17:28:45 10° N 17:32:45 35° ENE 17:36:44 10° SE
CZ-2C R/B 3.0 17:27:54 10° S 17:32:46 62° W 17:37:30 10° NNW
Cosmos 1340 Rocket 2.9 17:30:52 10° S 17:34:41 53° E 17:38:31 10° NNE
YAOGAN 1 2.8 17:31:40 10° S 17:35:59 74° WSW 17:40:20 10° NNW
COSMO-SKYMED 1 3.0 17:32:21 10° NNE 17:36:28 40° E 17:40:33 10° SSE
COSMOS 2441 4.4 17:35:03 10° SSE 17:39:55 87° ENE 17:44:46 10° NNW
CORIOLIS 4.5 17:34:46 10° S 17:40:06 73° WSW 17:45:30 10° NNW
SMAP 3.8 17:35:41 10° S 17:40:16 59° W 17:44:54 10° NNW
ATLAS 5 CENTAUR R/B 3.9 17:41:16 10° NNW 17:44:49 16° NNE 17:47:55 12° ENE
Cosmos 1666 Rocket 4.1 17:41:13 10° SSE 17:45:10 35° E 17:49:10 10° NNE
CENTAUR R/B 4.0 17:39:56 10° W 17:45:37 33° NNW 17:51:59 10° NNE
Cosmos 1869 4.4 17:43:53 10° NNE 17:47:13 24° ENE 17:50:32 10° SE
Cosmos 1980 4.4 17:43:32 10° SW 17:49:05 55° WNW 17:54:41 10° NNE
Lacrosse 4 Rocket 1.8 17:46:38 10° NNW 17:50:29 39° NE 17:54:18 10° SE
Cosmos 1626 2.3 17:51:31 10° SSE 17:55:08 48° E 17:58:45 10° NNE
USA 229 DEB 4.1 17:52:25 10° S 17:58:48 43° ESE 18:04:29 14° NE
USA 229 4.1 17:52:32 10° S 17:58:54 43° ESE 18:04:33 14° NE
Resurs 01 Rocket 2.8 17:58:25 10° ESE 18:01:49 22° ENE 18:05:14 10° NNE
Cosmos 1943 Rocket 3.8 17:59:49 10° NNE 18:02:32 14° NE 18:02:59 13° NE
Blok-2BL 4.0 18:00:50 10° NNW 18:03:51 31° NE 18:04:52 25° E
Cosmos 2219 Rocket 3.9 17:59:34 10° WSW 18:04:28 30° NW 18:09:23 10° N
Cosmos 2058 3.7 18:01:52 10° SSW 18:05:53 54° W 18:09:55 10° N
SKYMED 3 4.5 18:02:13 10° NNE 18:06:35 85° ESE 18:10:56 10° SSW
Cosmos 1184 Rocket 3.0 18:03:48 10° S 18:07:01 47° E 18:09:37 14° NNE
Cosmos 2279 Rocket 4.4 18:01:05 10° NNW 18:07:16 69° W 18:13:26 10° S
CZ-4C R/B 4.1 18:03:29 10° NNW 18:08:13 20° NNE 18:11:11 16° NE
Iridium 4 Rocket 3.6 18:07:18 10° SSE 18:11:14 33° E 18:15:02 10° NNE
Spot 2 Rocket 4.2 18:09:08 10° SE 18:13:31 31° ENE 18:17:55 10° N
Cosmos 1603 4.2 18:09:02 10° S 18:14:09 38° ESE 18:17:32 19° NE
Cosmos 2333 Rocket 3.8 18:10:21 10° WSW 18:15:20 31° NW 18:20:21 10° N
Lacrosse 5 rocket 4.4 18:13:53 10° W 18:15:58 14° WSW 18:18:06 10° SSW
Cosmos 1461 3.4 18:12:03 10° SW 18:16:08 56° NW 18:19:26 15° NNE
Cosmos 304 Rocket 4.3 18:11:44 10° SSW 18:16:29 60° WNW 18:21:15 10° NNE
FREGAT/IRIS 2.9 18:13:47 10° SSE 18:16:43 44° ENE 18:19:40 10° N
Aureole 1 Rocket 4.1 18:11:29 10° S 18:17:01 60° ESE 18:24:16 10° NNE
DMSP B5D1-3 4.4 18:12:09 10° NNE 18:17:16 76° ESE 18:22:21 10° S
Cosmos 1470 Rocket 4.2 18:14:27 10° SSE 18:18:19 32° E 18:19:50 25° NE
Cosmos 1242 Rocket 2.8 18:15:37 10° N 18:18:55 39° ENE 18:22:13 10° SE
Cosmos 1455 2.1 18:16:36 10° N 18:20:25 89° WSW 18:24:14 10° S
Tiangong 1 3.0 18:20:41 10° SSW 18:22:40 16° SSE 18:22:41 16° SSE
Cosmos 1805 Rocket 4.1 18:18:43 10° SSW 18:23:08 63° W 18:27:34 10° N
FengYun 1-2 T 4.5 18:17:55 10° SE 18:23:09 44° ENE 18:28:21 10° N
SKYMED 2 4.0 18:20:18 10° N 18:24:36 62° WNW 18:28:53 10° SSW
Cosmos 1356 Rocket 3.4 18:21:06 10° SSW 18:25:05 75° W 18:29:07 10° N
Nadezhda 4 Rocket 3.9 18:21:56 10° S 18:28:13 84° E 18:34:35 10° N
Cosmos 2242 Rocket 3.4 18:24:48 10° N 18:29:14 74° E 18:33:41 10° SSE
Cosmos 2026 Rocket 4.4 18:26:20 10° SSE 18:31:56 37° E 18:37:29 10° NNE
Cosmos 1538 Rocket 4.3 18:26:54 10° SSW 18:32:11 70° WNW 18:37:34 10° NNE
Sich 1 3.2 18:29:30 10° SSW 18:33:55 74° W 18:38:22 10° N
Coronas F rocket 2.4 18:36:18 10° SSW 18:37:55 35° SW 18:37:55 35° SW
Cosmos 923 Rocket 3.9 18:34:48 10° S 18:39:56 65° ESE 18:42:59 25° NNE
Cosmos 2237 Rocket 4.1 18:39:48 10° WSW 18:44:23 25° NW 18:49:01 10° N
SJ-6B 3.1 18:40:34 10° S 18:44:39 75° WSW 18:48:49 10° NNW
Cosmos 972 Rocket 4.3 18:39:49 10° N 18:44:57 49° ENE 18:47:26 30° SE
Cosmos 1633 Rocket 3.5 18:41:24 10° SSW 18:45:45 63° W 18:50:07 10° N
Cosmos 1680 Rocket 3.5 18:40:52 10° S 18:45:58 57° ESE 18:47:47 37° NE
Cosmos 2369 Rocket 2.4 18:40:33 10° NNW 18:45:59 45° ENE 18:47:04 40° E
NOSS 3-1 (C) 3.9 18:44:40 10° S 18:49:53 36° ESE 18:50:00 36° ESE
Cosmos 1092 Rocket 4.0 18:45:16 10° S 18:51:37 89° WNW 18:58:01 10° N
SL-16 R/B 3.3 18:47:51 10° SW 18:53:13 43° WNW 18:58:37 10° NNE
Cosmos 1553 Rocket 4.3 18:49:01 10° N 18:54:36 41° ENE 18:54:36 41° ENE
Lacrosse 5 3.2 18:52:11 10° NW 18:56:21 25° NNE 18:56:21 25° NNE
Cosmos 1867 3.9 18:51:15 10° NNW 18:56:25 43° NE 18:56:25 43° NE
ATLAS 3B R/B 4.1 18:54:36 10° NNW 18:59:44 21° NNE 19:00:18 21° NNE
USA 215 3.2 18:56:43 29° SE 19:00:25 89° NE 19:07:02 10° NW
ALOS 2.2 18:57:45 10° SSE 19:02:25 88° WSW 19:07:08 10° NNW
Cosmos 1862 Rocket 3.6 19:03:48 10° NNW 19:08:12 75° W 19:12:31 10° S
Cosmos 2084 Rocket 4.2 19:06:49 10° NW 19:09:20 40° NNW 19:09:20 40° NNW
FENGYUN 3A 3.7 19:06:49 10° S 19:12:10 78° WSW 19:17:35 10° NNW
Cosmos 292 Rocket 3.9 19:08:28 10° SSW 19:13:12 69° WNW 19:14:24 48° N
Cosmos 2195 Rocket 4.3 19:07:41 10° S 19:13:48 89° ESE 19:20:02 10° N
Meteor 1-26 Rocket 4.4 19:09:25 10° N 19:14:05 53° NNE 19:14:05 53° NNE
Cosmos 2112 Rocket 4.0 19:17:36 10° SSW 19:22:48 81° WNW 19:23:17 73° N
Lacrosse 4 Rocket 3.9 19:25:56 10° WNW 19:28:55 20° WSW 19:31:54 10° SSW
Cosmos 1943 3.6 19:24:20 10° SSW 19:28:35 51° S 19:28:35 51° S
ATLAS 5 CENTAUR R/B 3.0 19:25:10 10° NNW 19:29:29 42° N 19:29:29 42° N
Resurs 01 Rocket 2.9 19:34:52 16° SSW 19:38:03 40° W 19:42:15 10° NNW
Cosmos 1417 Rocket 4.5 19:32:15 10° N 19:38:26 78° W 19:41:57 27° S
H-2A ROCKET BODY 4.2 19:31:30 10° WSW 19:43:02 23° SSW 19:45:25 19° S
Cosmos 1943 Rocket 3.5 19:41:50 10° NNW 19:44:33 29° NNW 19:44:33 29° NNW
USA 229 DEB 4.5 19:43:07 10° WSW 19:49:44 47° NW 19:51:58 36° N
USA 229 4.4 19:43:12 10° WSW 19:49:49 48° NW 19:52:02 37° N
Cosmos 1655 Rocket 4.3 19:46:28 10° SSW 19:52:47 64° W 19:59:06 10° N
CZ-4C R/B 3.5 19:51:36 10° NNW 19:56:23 42° N 19:56:23 42° N
Cosmos 2369 Rocket 4.0 20:25:00 10° NW 20:28:56 28° W 20:28:56 28° W
ATLAS 3B R/B 4.5 20:45:11 10° NNW 20:47:34 22° NNW 20:47:34 22° NNW
